Weather History for Ogden Hill AFB, UT

Change the Weather History Date:

Sunday, December 9, 2012

  Actual Average Record
Temperature  
Mean Temperature 22 °F -  
Max Temperature 28 °F 36 °F 51 °F (1996)
Min Temperature 15 °F 23 °F -2 °F (2013)
Degree Days  
Heating Degree Days 44    
Moisture  
Dew Point 16 °F    
Average Humidity 77    
Maximum Humidity 100    
Minimum Humidity 56    
Precipitation  
Precipitation 0.00 in - - ()
Sea Level Pressure  
Sea Level Pressure 30.23 in    
Wind  
Wind Speed 5 mph (ESE)    
Max Wind Speed 9 mph    
Max Gust Speed -    
Visibility 10 miles    
Events Snow    
Averages and records for this station are not official NWS values.
T = Trace of Precipitation, MM = Missing Value Source: NWS Daily Summary

Daily Weather History Graph

Daily Weather History Graph

Search for Another Location

Airport:

Trip Planner

Search our weather history database for the weather conditions in past years. The results will help you decide how hot, cold, wet, or windy it might be!

Date:

Astronomy

Dec. 09, 2012 Rise Set
Actual Time 7:41 AM MST 4:59 PM MST
Civil Twilight 7:10 AM MST 5:30 PM MST
Nautical Twilight 6:36 AM MST 6:04 PM MST
Astronomical Twilight 6:02 AM MST 6:38 PM MST
Moon 3:17 AM MST (12/9) 2:09 PM MST (12/9)
Length of Visible Light 10h 19m
Length of Day
9h 17m
Waning Crescent, 18% of the Moon is Illuminated
Dec 9
Waning Crescent
Dec 13
New
Dec 19
First Quarter
Dec 28
Full
Jan 4
Last Quarter

Hourly Weather History & Observations

Time (MST) Temp. Windchill Dew Point Humidity Pressure Visibility Wind Dir Wind Speed Gust Speed Precip Events Conditions
12:03 AM 21.2 °F - 19.4 °F 93% 30.10 in 1.5 mi SE 2.3 mph - N/A   Partly Cloudy
12:08 AM 19.4 °F - 17.6 °F 93% 30.10 in 8.0 mi ESE 2.3 mph - N/A   Partly Cloudy
12:18 AM 19.4 °F - 19.4 °F 100% 30.10 in 10.0 mi ESE 2.3 mph - N/A   Partly Cloudy
12:38 AM 19.4 °F 14.3 °F 17.6 °F 93% 30.10 in 6.0 mi SE 3.5 mph - N/A   Partly Cloudy
12:48 AM 17.6 °F - 15.8 °F 93% 30.09 in 10.0 mi SE 2.3 mph - N/A   Scattered Clouds
12:58 AM 19.0 °F - 17.2 °F 93% 30.16 in 10.0 mi SE 2.3 mph - N/A   Scattered Clouds
1:08 AM 17.6 °F 12.3 °F 15.8 °F 93% 30.09 in 7.0 mi SE 3.5 mph - N/A   Partly Cloudy
1:18 AM 15.8 °F - 14.0 °F 93% 30.09 in 10.0 mi SE 2.3 mph - N/A   Clear
1:58 AM 19.6 °F 13.0 °F 17.4 °F 91% 30.16 in 10.0 mi ESE 4.6 mph - N/A   Clear
2:58 AM 18.5 °F 8.4 °F 15.6 °F 89% 30.17 in 10.0 mi ESE 8.1 mph - N/A   Clear
3:46 AM 19.4 °F 10.4 °F 15.8 °F 86% 30.10 in 10.0 mi ESE 6.9 mph - N/A Snow Light Snow
3:56 AM 21.2 °F 11.7 °F 15.8 °F 80% 30.10 in 10.0 mi ESE 8.1 mph - N/A   Partly Cloudy
3:57 AM 21.2 °F 11.7 °F 15.8 °F 80% 30.10 in 10.0 mi ESE 8.1 mph - N/A Snow Light Snow
3:58 AM 21.2 °F 11.7 °F 15.8 °F 80% 30.17 in 10.0 mi ESE 8.1 mph - 0.00 in Snow Light Snow
4:13 AM 21.2 °F 12.6 °F 15.8 °F 80% 30.10 in 10.0 mi ESE 6.9 mph - N/A Snow Light Snow
4:33 AM 21.2 °F 12.6 °F 15.8 °F 80% 30.10 in 10.0 mi ESE 6.9 mph - N/A Snow Light Snow
4:34 AM 21.2 °F 12.6 °F 15.8 °F 80% 30.11 in 10.0 mi ESE 6.9 mph - N/A   Overcast
4:39 AM 21.2 °F 12.6 °F 15.8 °F 80% 30.11 in 10.0 mi ESE 6.9 mph - N/A   Overcast
4:43 AM 21.2 °F 11.7 °F 15.8 °F 80% 30.10 in 10.0 mi ESE 8.1 mph - N/A Snow Light Snow
4:48 AM 21.2 °F 12.6 °F 15.8 °F 80% 30.10 in 6.0 mi ESE 6.9 mph - N/A Snow Light Snow
4:58 AM 20.7 °F 13.0 °F 16.2 °F 83% 30.19 in 6.0 mi ESE 5.8 mph - 0.00 in Snow Light Snow
5:07 AM 19.4 °F 11.5 °F 15.8 °F 86% 30.11 in 10.0 mi ESE 5.8 mph - N/A   Mostly Cloudy
5:12 AM 19.4 °F 11.5 °F 15.8 °F 86% 30.11 in 10.0 mi East 5.8 mph - N/A   Scattered Clouds
5:58 AM 18.9 °F 8.8 °F 14.5 °F 83% 30.22 in 10.0 mi ESE 8.1 mph - 0.00 in   Clear
6:43 AM 19.4 °F 12.8 °F 15.8 °F 86% 30.14 in 10.0 mi ESE 4.6 mph - N/A   Mostly Cloudy
6:58 AM 19.6 °F - 14.9 °F 82% 30.25 in 10.0 mi Calm Calm - N/A   Mostly Cloudy
7:08 AM 19.4 °F 12.8 °F 14.0 °F 80% 30.15 in 10.0 mi ESE 4.6 mph - N/A   Scattered Clouds
7:58 AM 17.8 °F 7.5 °F 12.9 °F 81% 30.28 in 10.0 mi ESE 8.1 mph - N/A   Partly Cloudy
8:55 AM 19.4 °F 9.5 °F 14.0 °F 80% 30.19 in 10.0 mi ESE 8.1 mph - N/A Snow Light Snow
8:58 AM 19.0 °F 8.2 °F 13.8 °F 80% 30.30 in 10.0 mi ESE 9.2 mph - 0.00 in Snow Light Snow
9:04 AM 19.4 °F 11.5 °F 14.0 °F 80% 30.19 in 10.0 mi ESE 5.8 mph - N/A   Partly Cloudy
9:58 AM 22.3 °F 13.9 °F 15.1 °F 74% 30.32 in 10.0 mi ESE 6.9 mph - 0.00 in   Clear
10:58 AM 26.8 °F - 16.7 °F 66% 30.34 in 10.0 mi Calm Calm - N/A   Scattered Clouds
11:03 AM 26.6 °F - 17.6 °F 69% 30.25 in 10.0 mi Calm Calm - N/A   Mostly Cloudy
11:18 AM 26.6 °F - 19.4 °F 74% 30.25 in 10.0 mi ENE 2.3 mph - N/A   Scattered Clouds
11:23 AM 28.4 °F - 19.4 °F 69% 30.25 in 10.0 mi Variable 2.3 mph - N/A   Mostly Cloudy
11:31 AM 26.6 °F - 19.4 °F 74% 30.25 in 10.0 mi Variable 2.3 mph - N/A   Mostly Cloudy
11:36 AM 26.6 °F - 19.4 °F 74% 30.24 in 10.0 mi North 2.3 mph - N/A   Mostly Cloudy
11:51 AM 26.6 °F 21.2 °F 19.4 °F 74% 30.24 in 10.0 mi NNE 4.6 mph - N/A Snow Light Snow
11:58 AM 26.1 °F 21.9 °F 19.0 °F 75% 30.34 in 10.0 mi NNE 3.5 mph - 0.00 in Snow Light Snow
12:06 PM 26.6 °F 22.6 °F 19.4 °F 74% 30.24 in 10.0 mi NNW 3.5 mph - N/A   Overcast
12:11 PM 26.6 °F 21.2 °F 19.4 °F 74% 30.24 in 10.0 mi North 4.6 mph - N/A   Overcast
12:16 PM 26.6 °F 21.2 °F 17.6 °F 69% 30.24 in 10.0 mi NNW 4.6 mph - N/A   Overcast
12:36 PM 26.6 °F - 17.6 °F 69% 30.24 in 10.0 mi North 1.2 mph - N/A   Overcast
12:46 PM 26.6 °F 20.0 °F 19.4 °F 74% 30.24 in 10.0 mi NW 5.8 mph - N/A Snow Light Snow
12:56 PM 26.6 °F 22.6 °F 17.6 °F 69% 30.24 in 10.0 mi NNW 3.5 mph - N/A Snow Light Snow
12:57 PM 26.6 °F 21.2 °F 17.6 °F 69% 30.24 in 10.0 mi North 4.6 mph - N/A   Mostly Cloudy
12:58 PM 26.2 °F 22.1 °F 18.1 °F 71% 30.34 in 10.0 mi NNW 3.5 mph - 0.00 in   Mostly Cloudy
1:03 PM 26.6 °F 21.2 °F 19.4 °F 74% 30.23 in 10.0 mi NNW 4.6 mph - N/A   Mostly Cloudy
1:08 PM 26.6 °F 20.0 °F 19.4 °F 74% 30.23 in 10.0 mi NNW 5.8 mph - N/A   Mostly Cloudy
1:18 PM 26.6 °F 22.6 °F 19.4 °F 74% 30.24 in 10.0 mi NNW 3.5 mph - N/A   Scattered Clouds
1:28 PM 26.6 °F 22.6 °F 19.4 °F 74% 30.24 in 10.0 mi North 3.5 mph - N/A   Scattered Clouds
1:38 PM 26.6 °F 17.5 °F 19.4 °F 74% 30.24 in 10.0 mi NW 9.2 mph - N/A   Mostly Cloudy
1:58 PM 27.0 °F 18.0 °F 18.0 °F 69% 30.35 in 10.0 mi NW 9.2 mph - 0.00 in   Overcast
2:48 PM 26.6 °F 20.0 °F 17.6 °F 69% 30.24 in 10.0 mi NW 5.8 mph - N/A   Scattered Clouds
2:58 PM 27.1 °F 20.7 °F 16.9 °F 65% 30.35 in 10.0 mi NNW 5.8 mph - N/A   Partly Cloudy
3:58 PM 26.8 °F 20.2 °F 13.1 °F 56% 30.36 in 10.0 mi West 5.8 mph - N/A   Partly Cloudy
4:18 PM 26.6 °F 20.0 °F 14.0 °F 59% 30.27 in 10.0 mi West 5.8 mph - N/A   Mostly Cloudy
4:58 PM 24.3 °F 17.3 °F 14.4 °F 66% 30.38 in 10.0 mi West 5.8 mph - N/A   Scattered Clouds
5:58 PM 21.7 °F 17.0 °F 14.2 °F 73% 30.40 in 10.0 mi SW 3.5 mph - N/A   Clear
6:58 PM 22.6 °F 16.5 °F 13.8 °F 69% 30.42 in 10.0 mi SW 4.6 mph - N/A   Clear
7:28 PM 21.2 °F 16.4 °F 14.0 °F 74% 30.31 in 10.0 mi South 3.5 mph - N/A   Mostly Cloudy
7:53 PM 23.0 °F 18.4 °F 14.0 °F 68% 30.30 in 10.0 mi South 3.5 mph - N/A   Mostly Cloudy
7:58 PM 22.1 °F - 14.0 °F 71% 30.42 in 10.0 mi SSW 1.2 mph - N/A   Mostly Cloudy
8:38 PM 23.0 °F 14.7 °F 14.0 °F 68% 30.31 in 10.0 mi South 6.9 mph - N/A   Scattered Clouds
8:53 PM 21.2 °F 12.6 °F 15.8 °F 80% 30.31 in 10.0 mi South 6.9 mph - N/A   Mostly Cloudy
8:58 PM 21.2 °F 11.7 °F 15.8 °F 80% 30.42 in 10.0 mi South 8.1 mph - N/A   Scattered Clouds
9:58 PM 20.5 °F 10.8 °F 12.9 °F 73% 30.41 in 10.0 mi SSE 8.1 mph - N/A   Clear
10:58 PM 20.1 °F 9.5 °F 13.1 °F 74% 30.41 in 10.0 mi SSE 9.2 mph - N/A   Partly Cloudy
11:43 PM 21.2 °F 11.7 °F 14.0 °F 74% 30.31 in 10.0 mi SSE 8.1 mph - N/A   Mostly Cloudy
11:58 PM 23.0 °F 13.9 °F 14.7 °F 71% 30.41 in 10.0 mi South 8.1 mph - N/A   Overcast